Weather History for Bullhead City, AZ

Change the Weather History Date:

Monday, March 25, 2013

  Actual Average Record
Temperature  
Mean Temperature 66 °F -  
Max Temperature 82 °F 78 °F 96 °F (1990)
Min Temperature 50 °F 56 °F 46 °F (2011)
Cooling Degree Days 1    
Growing Degree Days 16 (Base 50)    
Moisture  
Dew Point 16 °F    
Average Humidity 17    
Maximum Humidity 38    
Minimum Humidity 7    
Precipitation  
Precipitation 0.00 in - - ()
Sea Level Pressure  
Sea Level Pressure 29.94 in    
Wind  
Wind Speed 4 mph (East)    
Max Wind Speed 15 mph    
Max Gust Speed 16 mph    
Visibility 10 miles    
Events Thunderstorm    
Averages and records for this station are not official NWS values.
T = Trace of Precipitation, MM = Missing Value Source: NWS Daily Summary

Daily Weather History Graph

Daily Weather History Graph

Search for Another Location

Airport:

Trip Planner

Search our weather history database for the weather conditions in past years. The results will help you decide how hot, cold, wet, or windy it might be!

Date:

Astronomy

Mar. 25, 2013 Rise Set
Actual Time 6:34 AM MST 6:54 PM MST
Civil Twilight 6:09 AM MST 7:19 PM MST
Nautical Twilight 5:39 AM MST 7:49 PM MST
Astronomical Twilight 5:09 AM MST 8:19 PM MST
Moon 5:32 PM MST (3/25) 5:17 AM MST (3/25)
Length of Visible Light 13h 10m
Length of Day
12h 19m
Waxing Gibbous, 97% of the Moon is Illuminated
Mar 25
Waxing Gibbous
Mar 27
Full
Apr 2
Last Quarter
Apr 10
New
Apr 18
First Quarter

Hourly Weather History & Observations

Time (MST) Temp. Dew Point Humidity Pressure Visibility Wind Dir Wind Speed Gust Speed Precip Events Conditions
12:15 AM 59.0 °F 14.0 °F 17% 29.96 in 10.0 mi North 3.5 mph - N/A   Clear
12:35 AM 57.2 °F 14.0 °F 18% 29.96 in 10.0 mi NE 3.5 mph - N/A   Clear
12:55 AM 57.2 °F 14.0 °F 18% 29.95 in 10.0 mi Calm Calm - N/A   Clear
1:35 AM 57.2 °F 14.0 °F 18% 29.95 in 10.0 mi ENE 5.8 mph - N/A   Clear
1:55 AM 57.2 °F 14.0 °F 18% 29.95 in 10.0 mi North 4.6 mph - N/A   Clear
2:15 AM 57.2 °F 14.0 °F 18% 29.95 in 10.0 mi NNE 3.5 mph - N/A   Clear
2:35 AM 55.4 °F 14.0 °F 20% 29.94 in 10.0 mi Calm Calm - N/A   Clear
2:55 AM 55.4 °F 14.0 °F 20% 29.94 in 10.0 mi NE 4.6 mph - N/A   Clear
3:15 AM 57.2 °F 15.8 °F 20% 29.94 in 10.0 mi NNW 3.5 mph - N/A   Clear
3:35 AM 53.6 °F 15.8 °F 22% 29.95 in 10.0 mi Calm Calm - N/A   Clear
3:55 AM 51.8 °F 15.8 °F 24% 29.95 in 10.0 mi Calm Calm - N/A   Clear
4:15 AM 50.0 °F 17.6 °F 28% 29.95 in 10.0 mi Calm Calm - N/A   Clear
4:35 AM 50.0 °F 21.2 °F 32% 29.96 in 10.0 mi Calm Calm - N/A   Clear
4:55 AM 51.8 °F 21.2 °F 30% 29.96 in 10.0 mi ENE 5.8 mph - N/A   Clear
5:15 AM 51.8 °F 15.8 °F 24% 29.96 in 10.0 mi ENE 3.5 mph - N/A   Clear
5:35 AM 50.0 °F 23.0 °F 35% 29.97 in 10.0 mi Calm Calm - N/A   Clear
5:55 AM 51.8 °F 15.8 °F 24% 29.98 in 10.0 mi NE 3.5 mph - N/A   Clear
6:15 AM 50.0 °F 19.4 °F 30% 29.98 in 10.0 mi NNE 3.5 mph - N/A   Clear
6:35 AM 50.0 °F 23.0 °F 35% 29.98 in 10.0 mi NE 3.5 mph - N/A   Clear
6:55 AM 50.0 °F 24.8 °F 37% 29.98 in 10.0 mi NNE 4.6 mph - N/A   Clear
7:15 AM 50.0 °F 24.8 °F 37% 30.00 in 10.0 mi Calm Calm - N/A   Clear
7:35 AM 53.6 °F 28.4 °F 38% 30.00 in 10.0 mi Calm Calm - N/A   Clear
7:55 AM 53.6 °F 28.4 °F 38% 30.01 in 10.0 mi Calm Calm - N/A   Clear
8:15 AM 55.4 °F 26.6 °F 33% 30.02 in 10.0 mi SSW 3.5 mph - N/A   Clear
8:35 AM 55.4 °F 24.8 °F 31% 30.02 in 10.0 mi SSW 3.5 mph - N/A   Clear
8:55 AM 57.2 °F 24.8 °F 29% 30.03 in 10.0 mi SW 3.5 mph - N/A   Clear
9:15 AM 64.4 °F 15.8 °F 15% 30.02 in 10.0 mi NNE 12.7 mph 16.1 mph N/A   Clear
9:35 AM 64.4 °F 15.8 °F 15% 30.02 in 10.0 mi North 12.7 mph - N/A   Clear
9:55 AM 66.2 °F 14.0 °F 13% 30.02 in 10.0 mi North 15.0 mph - N/A   Clear
10:15 AM 66.2 °F 15.8 °F 14% 30.02 in 10.0 mi North 12.7 mph - N/A   Clear
10:35 AM 68.0 °F 15.8 °F 13% 30.01 in 10.0 mi North 12.7 mph - N/A   Clear
10:55 AM 69.8 °F 15.8 °F 13% 30.01 in 10.0 mi North 11.5 mph - N/A   Clear
11:15 AM 71.6 °F 15.8 °F 12% 30.01 in 10.0 mi North 12.7 mph - N/A   Clear
11:35 AM 73.4 °F 15.8 °F 11% 30.01 in 10.0 mi NNW 10.4 mph - N/A   Clear
11:55 AM 73.4 °F 15.8 °F 11% 30.00 in 10.0 mi NNW 8.1 mph - N/A   Clear
12:15 PM 75.2 °F 14.0 °F 10% 30.00 in 10.0 mi NW 5.8 mph - N/A   Clear
12:35 PM 75.2 °F 14.0 °F 10% 29.99 in 10.0 mi SW 3.5 mph - N/A Thunderstorm Clear
12:55 PM 75.2 °F 14.0 °F 10% 29.98 in 10.0 mi West 5.8 mph - N/A   Clear
1:15 PM 77.0 °F 12.2 °F 9% 29.97 in 10.0 mi Calm Calm - N/A   Clear
1:35 PM 77.0 °F 12.2 °F 9% 29.96 in 10.0 mi Calm Calm - N/A   Clear
1:55 PM 77.0 °F 12.2 °F 9% 29.95 in 10.0 mi WSW 6.9 mph - N/A   Clear
2:15 PM 80.6 °F 10.4 °F 7% 29.94 in 10.0 mi SW 6.9 mph - N/A   Clear
2:35 PM 80.6 °F 10.4 °F 7% 29.93 in 10.0 mi SW 10.4 mph - N/A   Clear
2:55 PM 80.6 °F 10.4 °F 7% 29.92 in 10.0 mi WSW 8.1 mph - N/A   Clear
3:15 PM 80.6 °F 10.4 °F 7% 29.91 in 10.0 mi Calm Calm - N/A   Clear
3:35 PM 80.6 °F 10.4 °F 7% 29.90 in 10.0 mi South 6.9 mph - N/A   Clear
3:55 PM 80.6 °F 12.2 °F 8% 29.89 in 10.0 mi SE 8.1 mph - N/A   Clear
4:15 PM 82.4 °F 12.2 °F 7% 29.88 in 10.0 mi South 9.2 mph - N/A   Clear
4:35 PM 82.4 °F 14.0 °F 8% 29.87 in 10.0 mi South 8.1 mph - N/A   Clear
4:55 PM 80.6 °F 14.0 °F 8% 29.87 in 10.0 mi SSE 8.1 mph - N/A   Clear
5:15 PM 80.6 °F 14.0 °F 8% 29.86 in 10.0 mi South 6.9 mph - N/A   Clear
5:35 PM 80.6 °F 14.0 °F 8% 29.86 in 10.0 mi South 9.2 mph 16.1 mph N/A   Clear
5:55 PM 80.6 °F 14.0 °F 8% 29.86 in 10.0 mi SSE 9.2 mph - N/A   Clear
6:15 PM 80.6 °F 14.0 °F 8% 29.86 in 10.0 mi SSE 6.9 mph - N/A   Clear
6:35 PM 80.6 °F 14.0 °F 8% 29.86 in 10.0 mi SSE 5.8 mph - N/A   Clear
6:55 PM 78.8 °F 14.0 °F 9% 29.86 in 10.0 mi SSE 5.8 mph - N/A   Clear
7:15 PM 77.0 °F 15.8 °F 10% 29.86 in 10.0 mi South 3.5 mph - N/A   Clear
7:35 PM 73.4 °F 19.4 °F 13% 29.86 in 10.0 mi SE 3.5 mph - N/A   Clear
7:55 PM 75.2 °F 14.0 °F 10% 29.86 in 10.0 mi SSE 5.8 mph - N/A   Clear
8:15 PM 73.4 °F 17.6 °F 12% 29.87 in 10.0 mi Calm Calm - N/A   Clear
8:35 PM 71.6 °F 15.8 °F 12% 29.87 in 10.0 mi ENE 3.5 mph - N/A   Clear
8:55 PM 73.4 °F 15.8 °F 11% 29.87 in 10.0 mi Calm Calm - N/A   Clear
9:15 PM 71.6 °F 17.6 °F 13% 29.88 in 10.0 mi Calm Calm - N/A   Clear
9:55 PM 68.0 °F 17.6 °F 15% 29.89 in 10.0 mi East 3.5 mph - N/A   Clear
10:15 PM 66.2 °F 17.6 °F 15% 29.89 in 10.0 mi ESE 4.6 mph - N/A   Clear
10:35 PM 66.2 °F 17.6 °F 15% 29.89 in 10.0 mi ESE 4.6 mph - N/A   Clear
10:55 PM 66.2 °F 17.6 °F 15% 29.89 in 10.0 mi ESE 5.8 mph - N/A   Clear
11:15 PM 68.0 °F 15.8 °F 13% 29.89 in 10.0 mi Calm Calm - N/A   Clear
11:35 PM 68.0 °F 17.6 °F 15% 29.88 in 10.0 mi Calm Calm - N/A   Clear
11:55 PM 66.2 °F 17.6 °F 15% 29.88 in 10.0 mi SSE 5.8 mph - N/A   Clear